Regional Weather Roundup
Issued by NWS Charleston, WV

Home | Current Version | Previous Version | Graphics & Text | Print | Product List | Glossary On
Versions: 1 2 3 4 5 6 7 8 9 10 11 12 13 14 15 16 17 18 19 20 21 22 23 24 25 26 27
000
ASUS41 KRLX 191810
RWRRLX
West Virginia Regional Weather Roundup
National Weather Service Charleston WV
200 PM EDT TUE SEP 19 2017

Note: "fair" indicates few or no clouds below 12,000 feet with no
significant weather and/or obstructions to visibility.

WVZ003-191900-
Northern Panhandle of West Virginia

CITY           SKY/WX    TMP DP  RH WIND       PRES   REMARKS
WHEELING       SUNNY     81  62  52 VRB3      30.01F
$$

WVZ009-191900-
Northwest West Virginia

CITY           SKY/WX    TMP DP  RH WIND       PRES   REMARKS
PARKERSBURG    PTSUNNY   82  64  54 CALM      30.02F
$$

WVZ006-191900-
Western West Virginia

CITY           SKY/WX    TMP DP  RH WIND       PRES   REMARKS
HUNTINGTON     CLOUDY    80  66  62 NW3       30.01F
$$

WVZ015-191900-
West Central West Virginia

CITY           SKY/WX    TMP DP  RH WIND       PRES   REMARKS
CHARLESTON     PTSUNNY   83  64  52 VRB5      30.00F
$$

WVZ022-031-191900-
North Central West Virginia

CITY           SKY/WX    TMP DP  RH WIND       PRES   REMARKS
CLARKSBURG     MOSUNNY   80  62  54 CALM      30.01F
MORGANTOWN     PTSUNNY   80  62  54 N5        30.02F
$$

WVZ025-035-042-045-191900-
Southern West Virginia

CITY           SKY/WX    TMP DP  RH WIND       PRES   REMARKS
BECKLEY        PTSUNNY   78  57  48 NW6       30.07F
LOGAN          PTSUNNY   77  64  65 CALM      30.04F
BLUEFIELD      CLOUDY    74  56  53 W6        30.10F
LEWISBURG      MOSUNNY   77  59  53 CALM      30.06F
$$

WVZ047-191900-
Northern Mountains of West Virginia

CITY           SKY/WX    TMP DP  RH WIND       PRES   REMARKS
ELKINS         MOSUNNY   79  60  52 VRB3      30.04F
$$

WVZ052-191900-
Eastern Panhandle of West Virginia

CITY           SKY/WX    TMP DP  RH WIND       PRES   REMARKS
MARTINSBURG    SUNNY     79  63  57 CALM      29.99F
PETERSBURG     SUNNY     82  64  54 CALM      30.00F
$$




USA.gov is the U.S. government's official web portal to all federal, state and local government web resources and services.